Friday, January 19, 2018, 10:29 PM EST
Back to Local

KPYM, Plymouth Municipal Airport

Location: Carver, MA, United States Lat: 41.9
Local Time: 10:29 PM EST ( 3:29 GMT) Lon: -70.733
Time Zone: US/Eastern Elev: 147 ft

Show me the last for .
Show Coded

Time T Td Feel RH Dir Speed Gust Alt SLP Vis Weather Sky Remarks
2018-01-19 21:52 30 20 23 65 220° 7 - 29.96 29.96 10 CLR None
2018-01-19 20:52 31 20 24 63 230° 7 - 29.96 29.96 10 OVC037 None
2018-01-19 19:52 30 19 24 63 240° 6 - 29.95 29.95 10 BKN039 None
2018-01-19 18:52 30 21 25 68 230° 5 - 29.94 29.94 10 OVC038 6-hr Min Temp (7pm): 28.9°F
6-hr Max Temp (7pm): 37.0°F
2018-01-19 17:52 31 20 27 63 220° 3 - 29.95 29.95 10 BKN041 None
2018-01-19 16:52 32 20 27 60 220° 5 - 29.95 29.95 10 SCT038 None
2018-01-19 15:52 35 20 29 53 250° 7 - 29.93 29.94 10 CLR None
2018-01-19 14:52 36 20 31 51 240° 6 - 29.92 29.93 10 CLR None
2018-01-19 13:52 36 19 28 49 250° 10 - 29.91 29.92 10 CLR None
2018-01-19 13:05 35 19 29 51 250° 8 - 29.92 - 10 SCT029 None
2018-01-19 12:52 35 19 29 51 280° 8 - 29.92 29.93 10 BKN029 6-hr Min Temp (1pm): 19.9°F
6-hr Max Temp (1pm): 35.1°F
2018-01-19 12:45 34 19 28 53 220° 7 - 29.92 - 10 BKN029 None
2018-01-19 11:52 33 19 26 55 300° 8 - 29.95 29.95 10 CLR None
2018-01-19 10:52 32 19 26 58 290° 7 - 29.98 29.98 10 CLR None
2018-01-19 09:52 29 18 20 63 270° 10 - 29.99 30.00 10 CLR None
2018-01-19 08:52 26 17 17 68 270° 9 - 29.99 29.99 10 SCT042 None
2018-01-19 07:52 23 16 14 74 270° 8 - 29.98 29.98 9 CLR None
2018-01-19 06:52 21 15 16 77 210° 3 - 29.96 29.96 10 CLR 6-hr Min Temp (7am): 21.0°F
6-hr Max Temp (7am): 24.1°F
2018-01-19 05:52 22 15 13 74 270° 8 - 29.98 29.98 10 CLR None
2018-01-19 04:52 22 14 13 71 270° 7 - 29.95 29.95 10 CLR None
2018-01-19 03:52 22 15 16 74 260° 5 - 29.94 29.94 10 CLR None
2018-01-19 02:52 22 15 14 74 280° 6 - 29.94 29.95 10 CLR None
2018-01-19 01:52 23 15 14 71 270° 8 - 29.94 29.95 10 CLR None
2018-01-19 00:52 24 16 16 70 280° 7 - 29.93 29.93 10 CLR 6-hr Min Temp (1am): 24.1°F
6-hr Max Temp (1am): 28.0°F
2018-01-18 23:52 25 16 17 68 290° 7 - 29.94 29.94 10 CLR 24-hr Min Temp (12am): 25.0°F
24-hr Max Temp (12am): 35.1°F
2018-01-18 22:52 25 16 17 68 280° 7 - 29.94 29.94 10 CLR None

Support USWX by starting your Amazon purchase here.